STARLINK-32242 (60429 NORAD) Tracking and Keplerian Element Data

This shows tracking and keplerian element data for the satellite.

Feedback or suggestion? Click here.




ElementValue
Catalog60429
NameSTARLINK-32242
Epoch Orbit1081
Epoch Day286.75054651
Epoch Year2024
RAAN79.8324
Inclination53.1624
Eccentricity0.0001151
Argument of Perigee124.6435
Mean Anonmoly235.4674
Mean Motion15.30188082
Decay Rate-2.365E-05
L11 60429U 24144E 24286.75054651 -.00002365 00000+0 -67761-4 0 9999
L22 60429 53.1624 79.8324 0001151 124.6435 235.4674 15.30188082 10817



Live tracking and technical data element details for STARLINK-32242 (NORAD 60429). STARLINK-32242 can be tracked NOW for your location showing map with azimuth and elevation plus other details from your city location.







IsCatalogInMostPopularTable: catalog: 60429, numindb: 7
Update: records affected: 1



GetName: 60429 STARLINK-32242

Hit Count: updated at: Wed, 04 Dec 2024 18:08:05 GMT